Flag for U.S.A. Weather past 2 weeks in Palm Springs, California, U.S.A.

Now
92 °F

Sunny.


Feels Like: 89 °F
Forecast: 76 / 101 °F
Wind: No wind

Location: Palm Springs Regional Airport

Current Time: Sep 1, 2015 at 11:46:49 AM

Latest Report: Sep 1, 2015 at 10:53 AM


Visibility: 10 mi

Pressure: 29.87 "Hg

Humidity: 22%

Dew point: 48 °F

Location of Palm SpringsLocation

Historic Weather in Palm Springs — Graph

°F

Palm Springs temperature yesterday

Maximum temperature yesterday: 105 °F (at 3:53 PM)
Minimum temperature yesterday: 79 °F (at 6:53 AM)
Average temperature yesterday: 93 °F

Past Weeks' High & Low Weather Summary

 TemperatureHumidityPressure
High114 °F (Aug 29, 2:53 PM)56% (Aug 17, 9:53 AM)29.96 "Hg (Aug 17, 9:53 AM)
Low75 °F (Sep 1, 5:53 AM)10% (Aug 29, 2:53 PM)29.65 "Hg (Aug 18, 6:53 PM)
Average95 °F27%29.78 "Hg
* Reported Aug 17 9:53 AM — Sep 1 9:53 AM, Palm Springs, Weather by CustomWeather, © 2015

Note: Actual official high and low records may vary slightly from our data, if they occured in-between our weather recording intervals... More about our weather records

Advertising

Palm Springs weather history for previous 24 hours

 ConditionsComfort  
Time TempWeatherWind HumidityBarometerVisibility
9:53 AM
Tue, Sep 1
91 °FScattered clouds.3 mph22%29.87 "Hg10 mi
8:53 AM84 °FScattered clouds.5 mph33%29.87 "Hg10 mi
7:53 AM78 °FSunny.5 mph43%29.87 "Hg10 mi
6:53 AM76 °FClear.5 mph43%29.84 "Hg10 mi
5:53 AM75 °FClear.No wind40%29.80 "Hg10 mi
4:53 AM78 °FClear.No wind33%29.78 "Hg10 mi
3:53 AM79 °FClear.5 mph32%29.78 "Hg10 mi
2:53 AM80 °FClear.No wind30%29.77 "Hg10 mi
1:53 AM81 °FClear.No wind28%29.76 "Hg10 mi
12:53 AM82 °FClear.3 mph26%29.76 "Hg10 mi
11:53 PM
Mon, Aug 31
87 °FClear.6 mph21%29.76 "Hg10 mi
10:53 PM90 °FClear.13 mph19%29.75 "Hg10 mi
9:53 PM91 °FClear.16 mph21%29.75 "Hg10 mi
8:53 PM93 °FClear.22 mph22%29.73 "Hg10 mi
7:53 PM95 °FSunny.21 mph23%29.70 "Hg10 mi
6:53 PM98 °FSunny.20 mph17%29.68 "Hg10 mi
5:53 PM103 °FSunny.17 mph11%29.68 "Hg10 mi
4:53 PM105 °FSunny.13 mph10%29.69 "Hg10 mi
3:53 PM105 °FSunny.14 mph11%29.70 "Hg10 mi
2:53 PM104 °FScattered clouds.7 mph12%29.73 "Hg10 mi
1:53 PM104 °FScattered clouds.7 mph12%29.76 "Hg10 mi
12:53 PM102 °FScattered clouds.8 mph14%29.78 "Hg10 mi
11:53 AM100 °FScattered clouds.8 mph16%29.80 "Hg10 mi
Weather by CustomWeather, © 2015

See weather overviewHow to use our weather pages